Wind_Speed
39 41 42 43 44 45 47 49 51 53 55 58 60 63 66 69 73 77 82 87 92 97 101 104 105 105 105 105 107 109 112 115 117 117 115 111 107 103 100 95 91 86 82
41 43 44 45 47 48 50 52 54 56 58 61 64 66 69 73 77 82 87 92 97 101 103 103 102 99 96 94 96 100 105 110 116 120 121 119 116 111 107 103 98 92 88
43 44 46 47 48 50 52 55 57 59 62 64 67 70 73 77 81 86 91 95 98 100 101 100 96 92 87 85 86 90 95 102 108 115 122 125 123 119 114 109 104 99 93
45 46 47 49 50 52 54 57 60 62 65 67 70 72 76 80 85 89 93 96 97 98 96 93 88 83 79 77 78 80 85 91 99 107 116 125 128 126 121 116 111 105 99
47 48 49 51 52 54 56 59 62 65 67 69 72 75 78 83 87 91 93 94 95 94 91 86 81 76 73 71 71 73 77 82 90 98 108 118 128 131 128 122 117 111 105
50 50 51 53 54 56 58 61 64 67 69 71 74 77 81 85 88 90 91 91 90 88 84 80 75 71 67 66 65 67 70 76 82 90 100 111 122 131 132 128 122 117 111
52 53 53 54 56 58 60 62 65 68 71 74 76 78 81 84 87 87 87 86 85 82 79 75 71 67 64 61 59 61 65 70 76 84 93 104 115 126 132 132 127 122 116
55 55 56 56 58 59 62 64 67 70 73 77 79 82 83 83 85 83 82 81 79 77 74 72 68 65 61 57 53 53 58 64 71 78 87 98 109 119 128 132 131 126 121
57 58 58 59 60 62 64 66 69 72 75 79 82 85 86 86 86 81 76 75 73 71 69 68 66 63 59 54 50 47 50 58 66 73 81 92 103 113 122 130 132 129 124
59 60 60 61 62 64 65 68 70 73 77 80 83 85 87 87 88 83 74 70 67 65 64 64 63 61 58 53 48 43 43 51 60 69 77 87 99 109 117 125 130 130 127
60 61 62 63 64 65 67 69 72 75 78 81 83 84 85 85 85 84 76 67 62 60 60 60 61 60 56 52 47 41 39 43 52 64 73 83 94 104 113 120 127 130 129
62 62 63 64 65 67 68 70 73 76 80 82 84 83 83 82 81 80 77 69 61 56 55 56 58 59 55 51 46 40 35 37 46 58 70 79 89 99 109 116 123 130 131
63 63 64 65 67 68 69 71 74 78 80 82 83 81 80 80 79 77 75 70 63 55 52 52 56 57 55 50 45 40 34 33 41 53 66 76 86 95 105 113 120 128 131
64 64 65 67 68 68 70 72 75 78 80 82 81 79 78 77 76 74 73 70 64 56 50 50 52 55 54 50 46 40 33 30 36 49 62 73 82 92 101 110 118 125 131
64 66 67 68 69 70 71 73 76 78 80 81 80 77 76 75 73 71 70 68 66 60 51 48 50 52 53 50 46 42 34 30 32 45 59 70 80 90 99 107 116 124 130
65 67 68 69 70 71 72 74 76 79 80 80 78 75 73 73 70 69 67 65 63 61 55 49 48 49 50 49 46 42 36 30 29 39 55 69 78 88 97 105 114 121 128
66 68 69 70 71 72 73 74 76 78 79 78 77 74 72 71 69 67 65 63 60 59 56 49 48 48 48 47 45 42 37 32 29 35 51 66 76 86 96 104 113 121 128
67 69 69 70 71 72 73 74 76 78 78 77 75 72 70 69 67 65 64 61 58 57 55 51 47 47 46 46 43 41 38 34 29 32 45 63 75 85 95 103 112 119 127
68 69 70 70 71 72 73 74 75 76 76 75 73 70 68 68 65 63 62 60 57 54 53 51 48 46 45 44 42 39 36 33 30 29 40 58 72 83 93 101 110 119 126
69 70 71 70 70 71 72 73 74 74 74 74 71 68 67 66 64 62 60 58 56 53 51 50 48 45 44 43 42 39 34 32 29 28 35 51 68 81 91 100 107 116 125
69 69 69 69 68 68 69 71 72 72 72 71 69 66 64 63 62 61 60 59 55 52 50 50 48 45 44 43 42 39 34 30 27 26 31 45 62 77 88 97 105 113 122
68 68 67 67 65 65 68 69 70 70 70 69 67 64 62 62 61 59 58 57 55 52 50 49 48 46 44 43 41 38 33 29 25 25 28 39 56 70 83 93 101 109 119
66 66 66 63 62 63 65 67 67 67 67 67 65 63 61 60 59 57 56 55 52 50 49 49 47 45 43 41 39 36 31 27 23 22 24 33 48 62 76 87 97 105 114
63 63 61 59 59 61 63 63 64 65 65 64 63 61 59 58 57 56 54 52 50 48 47 46 45 43 42 40 37 33 28 23 20 19 20 28 41 54 68 80 92 101 109
59 58 57 56 57 58 59 60 60 62 62 61 60 59 58 56 55 54 53 51 48 45 44 43 43 42 39 37 34 30 24 20 16 15 18 26 37 48 59 72 84 95 103
56 55 54 54 54 55 57 57 58 59 59 58 58 56 55 54 53 52 51 49 47 43 41 40 40 39 37 35 31 27 21 16 13 12 17 25 34 44 52 64 76 87 97
Wind_Direction
314 314 313 314 314 315 316 317 317 316 315 313 311 309 308 307 306 305 305 304 303 301 299 295 291 287 281 274 267 261 254 248 243 239 236 234 233 232 231 230 228 227 225
317 314 313 313 314 314 315 316 316 316 316 315 314 313 311 310 310 309 309 308 307 304 302 298 294 288 282 275 267 260 253 247 240 235 231 229 229 229 228 227 226 225 224
319 317 315 314 314 314 315 316 317 317 317 317 317 315 314 314 313 312 312 311 309 307 304 300 296 290 283 276 269 261 254 247 240 234 228 225 224 225 225 225 224 223 222
321 319 317 316 315 315 315 316 317 318 319 319 319 318 317 316 315 315 314 313 311 308 305 302 297 292 285 278 271 263 255 248 241 234 228 222 220 220 221 222 221 221 220
323 321 319 317 317 316 316 317 318 319 320 320 321 320 319 318 318 317 316 315 312 310 307 303 299 294 288 281 273 264 256 248 241 234 228 222 218 216 217 218 219 219 218
324 322 320 318 318 317 317 318 319 320 321 322 322 322 322 321 320 319 318 316 313 311 308 305 302 298 293 286 276 266 256 247 240 234 228 222 217 214 213 214 216 216 216
324 323 321 319 318 318 318 319 320 322 323 323 324 324 323 322 321 321 319 317 314 312 310 308 306 303 299 293 282 268 256 247 239 233 227 223 218 213 211 211 212 213 214
324 323 321 319 319 319 319 320 321 323 324 325 325 325 325 324 324 323 321 319 316 314 312 311 310 309 306 300 290 274 258 246 238 231 226 222 218 214 210 209 209 211 212
323 322 321 319 319 319 320 321 323 324 325 326 326 325 326 326 326 326 323 320 317 316 314 313 312 313 311 307 299 283 262 247 237 230 225 220 217 214 211 208 207 208 209
322 321 320 319 319 319 321 322 324 325 326 327 326 326 326 326 327 328 327 323 320 318 315 314 315 315 315 313 306 293 270 249 236 228 223 219 216 214 211 209 206 206 207
321 320 320 319 319 320 322 323 325 326 327 327 327 327 326 326 327 328 329 327 324 320 317 316 315 317 318 316 312 301 279 253 236 227 222 218 215 212 211 209 207 205 205
319 319 319 319 320 321 322 324 326 326 327 327 327 327 327 327 327 327 328 329 328 324 319 317 316 318 319 319 316 307 288 259 237 226 221 216 213 211 210 209 207 205 203
318 318 319 319 320 322 324 325 326 326 327 327 327 327 327 327 328 328 328 329 329 328 323 319 317 318 320 320 318 311 297 269 240 226 219 215 212 210 209 208 207 205 203
317 317 318 319 321 323 324 325 326 326 326 326 327 328 328 328 328 328 328 328 329 330 327 321 319 318 319 320 319 314 302 280 247 226 218 214 211 209 207 207 206 205 203
315 316 318 319 321 323 324 325 325 325 325 326 327 328 328 328 329 328 328 328 327 329 331 325 321 319 319 319 319 316 306 288 256 230 218 213 210 208 206 205 205 204 203
314 316 317 319 321 322 323 324 324 324 325 325 327 328 329 329 330 329 329 328 327 327 330 328 324 321 320 319 317 316 309 293 266 234 219 213 210 208 206 204 204 203 203
314 316 318 320 321 321 321 322 323 323 324 325 327 329 329 329 330 330 330 329 327 326 328 330 326 323 322 319 317 314 310 297 273 242 222 214 210 208 206 204 203 202 202
314 316 318 320 320 321 320 321 322 322 323 325 327 329 329 330 331 331 330 329 327 326 327 329 328 324 322 320 317 314 309 301 281 250 226 215 210 208 206 204 203 202 202
314 315 317 319 320 321 320 320 321 322 323 324 327 329 330 330 331 331 331 330 328 327 327 328 328 326 324 321 319 315 310 302 286 259 231 217 211 208 206 205 203 202 201
313 315 316 318 319 321 320 320 321 321 322 324 327 329 330 331 331 331 331 331 329 328 327 328 328 326 325 323 320 317 311 302 288 265 235 219 212 209 206 205 204 202 201
313 315 316 317 318 320 320 320 321 321 322 324 327 329 330 331 331 332 332 332 331 329 329 329 329 328 327 325 322 319 312 303 289 269 238 220 213 209 207 205 204 203 201
313 314 316 316 317 318 319 320 320 321 322 324 327 329 331 331 332 333 333 333 331 330 330 330 330 329 328 325 323 320 313 304 290 269 241 220 213 209 207 205 204 203 201
312 313 315 316 316 317 318 319 320 321 322 324 327 330 331 332 332 334 334 334 332 330 330 329 330 329 327 326 323 320 313 305 290 268 242 219 211 208 206 205 204 203 202
312 313 315 315 316 317 318 319 320 321 322 324 327 330 332 333 333 334 335 335 334 332 331 330 330 329 328 327 324 321 314 304 288 266 236 214 207 204 205 204 204 203 202
312 313 315 315 316 317 318 319 320 321 322 325 327 330 332 333 333 334 336 336 335 333 331 331 332 331 331 330 327 323 316 305 287 258 225 206 200 199 201 201 203 203 203
312 313 314 315 315 316 317 319 320 321 323 325 327 330 331 333 334 335 337 337 337 335 333 333 333 333 333 332 330 326 319 307 283 241 213 199 193 192 194 198 200 202 202
Height
5786 5781 5776 5771 5766 5761 5755 5750 5744 5737 5731 5724 5717 5710 5702 5694 5686 5677 5668 5658 5648 5637 5626 5613 5602 5592 5585 5579 5578 5582 5592 5606 5625 5645 5665 5682 5698 5711 5724 5737 5749 5760 5770
5778 5772 5767 5762 5756 5751 5745 5739 5732 5725 5718 5710 5702 5693 5684 5675 5666 5655 5644 5632 5619 5604 5589 5574 5561 5550 5542 5537 5535 5536 5544 5556 5573 5595 5620 5642 5662 5680 5696 5711 5725 5739 5751
5769 5764 5758 5752 5746 5740 5734 5727 5719 5712 5704 5696 5687 5677 5666 5655 5644 5632 5619 5605 5589 5572 5554 5538 5523 5513 5505 5500 5498 5498 5502 5512 5527 5546 5571 5598 5623 5646 5666 5683 5700 5715 5730
5761 5755 5749 5742 5736 5729 5722 5714 5707 5699 5690 5681 5672 5660 5649 5637 5623 5609 5594 5577 5559 5541 5523 5506 5492 5481 5473 5468 5465 5464 5467 5474 5487 5504 5525 5552 5580 5607 5632 5653 5673 5691 5708
5753 5746 5739 5732 5725 5717 5710 5702 5694 5685 5676 5666 5656 5645 5631 5618 5602 5585 5568 5549 5530 5511 5494 5479 5465 5454 5445 5439 5435 5434 5435 5441 5452 5467 5486 5509 5537 5567 5595 5621 5643 5664 5684
5744 5737 5729 5721 5713 5705 5697 5689 5680 5670 5661 5651 5640 5628 5613 5597 5579 5561 5542 5523 5503 5484 5468 5454 5441 5430 5421 5413 5408 5406 5407 5412 5422 5435 5453 5473 5498 5528 5558 5586 5612 5636 5658
5735 5727 5719 5710 5702 5694 5685 5676 5666 5656 5645 5634 5624 5613 5600 5581 5560 5540 5519 5499 5479 5461 5445 5431 5419 5408 5398 5390 5383 5380 5381 5385 5394 5407 5423 5443 5466 5492 5522 5552 5580 5607 5631
5724 5716 5708 5699 5690 5682 5672 5663 5653 5641 5629 5616 5605 5593 5582 5569 5547 5524 5501 5478 5458 5441 5426 5412 5400 5389 5378 5369 5362 5357 5357 5361 5370 5382 5397 5416 5438 5462 5489 5519 5549 5578 5605
5714 5705 5696 5687 5678 5669 5659 5649 5638 5626 5614 5599 5584 5570 5556 5544 5529 5512 5489 5465 5443 5426 5410 5396 5384 5372 5361 5351 5343 5338 5336 5340 5348 5360 5374 5391 5412 5436 5461 5489 5518 5548 5577
5703 5694 5685 5676 5666 5656 5646 5635 5623 5611 5598 5584 5568 5550 5533 5515 5500 5489 5476 5452 5432 5414 5397 5382 5369 5358 5347 5337 5329 5322 5319 5321 5328 5339 5352 5369 5388 5411 5436 5463 5491 5521 5549
5692 5683 5674 5664 5654 5644 5633 5621 5608 5595 5581 5567 5551 5534 5516 5497 5477 5460 5452 5440 5421 5402 5385 5370 5357 5345 5335 5325 5316 5309 5304 5304 5310 5320 5332 5347 5366 5388 5413 5438 5465 5493 5523
5680 5671 5662 5652 5641 5631 5619 5607 5594 5580 5566 5550 5534 5517 5499 5481 5463 5443 5429 5419 5408 5393 5375 5360 5345 5333 5324 5314 5306 5298 5292 5291 5294 5302 5314 5327 5345 5366 5389 5414 5440 5467 5497
5669 5659 5650 5639 5629 5617 5606 5593 5580 5566 5551 5535 5519 5502 5483 5465 5447 5429 5413 5401 5392 5382 5366 5351 5335 5323 5313 5304 5296 5288 5282 5279 5281 5287 5297 5311 5327 5346 5368 5392 5417 5445 5474
5657 5647 5637 5627 5616 5604 5592 5580 5566 5552 5537 5521 5505 5487 5470 5451 5433 5415 5399 5384 5375 5369 5357 5342 5327 5313 5302 5294 5286 5279 5273 5269 5269 5273 5282 5295 5311 5329 5349 5373 5398 5425 5453
5644 5635 5624 5614 5603 5591 5579 5566 5553 5539 5524 5508 5491 5474 5457 5439 5422 5404 5388 5371 5358 5350 5346 5334 5319 5305 5293 5285 5277 5270 5264 5260 5258 5261 5269 5281 5295 5312 5332 5355 5380 5407 5434
5632 5622 5611 5601 5589 5578 5566 5553 5540 5526 5511 5495 5479 5462 5445 5428 5412 5395 5379 5364 5349 5336 5331 5324 5311 5298 5286 5276 5268 5261 5255 5251 5249 5250 5257 5268 5281 5298 5316 5337 5362 5389 5417
5619 5609 5598 5588 5576 5565 5553 5541 5528 5514 5499 5483 5466 5451 5434 5417 5402 5386 5371 5356 5342 5328 5319 5314 5302 5290 5279 5269 5260 5252 5246 5242 5240 5240 5245 5255 5268 5284 5302 5322 5346 5372 5400
5606 5596 5586 5575 5564 5552 5540 5528 5515 5501 5487 5472 5456 5440 5424 5407 5392 5376 5362 5348 5334 5321 5310 5303 5295 5283 5272 5261 5253 5245 5238 5233 5230 5230 5233 5242 5254 5270 5288 5308 5331 5357 5385
5593 5583 5573 5562 5551 5540 5528 5516 5504 5490 5475 5460 5445 5429 5414 5397 5383 5368 5354 5340 5327 5314 5302 5293 5285 5275 5265 5254 5245 5238 5231 5225 5221 5220 5222 5230 5242 5258 5276 5295 5318 5343 5371
5580 5570 5560 5550 5539 5528 5516 5504 5492 5479 5464 5449 5434 5419 5404 5388 5374 5360 5347 5333 5319 5307 5296 5285 5276 5267 5257 5247 5237 5230 5223 5217 5213 5211 5212 5219 5230 5245 5263 5284 5307 5332 5360
5566 5557 5547 5537 5526 5515 5504 5492 5480 5468 5454 5439 5424 5409 5394 5379 5365 5350 5336 5323 5310 5299 5288 5278 5268 5259 5249 5239 5230 5222 5215 5210 5205 5202 5203 5209 5220 5235 5253 5274 5297 5321 5348
5553 5543 5534 5524 5513 5503 5492 5481 5469 5457 5444 5430 5416 5401 5386 5371 5357 5343 5329 5315 5302 5290 5280 5270 5261 5251 5242 5232 5223 5215 5208 5203 5199 5197 5196 5202 5211 5227 5245 5265 5288 5312 5338
5539 5530 5521 5511 5501 5491 5480 5469 5457 5446 5434 5420 5406 5392 5378 5364 5350 5337 5324 5310 5297 5284 5274 5264 5255 5245 5236 5227 5217 5210 5202 5197 5194 5191 5192 5197 5206 5221 5238 5258 5280 5303 5328
5526 5517 5508 5499 5489 5480 5469 5458 5447 5436 5423 5410 5397 5384 5371 5357 5343 5330 5319 5306 5292 5280 5270 5260 5250 5240 5231 5221 5212 5205 5198 5193 5190 5188 5189 5194 5202 5215 5231 5251 5273 5296 5320
5512 5504 5496 5487 5478 5468 5458 5448 5437 5426 5414 5401 5388 5375 5362 5350 5337 5325 5313 5300 5288 5277 5266 5255 5245 5235 5226 5217 5208 5201 5195 5191 5188 5187 5188 5192 5200 5211 5227 5246 5267 5290 5313
5499 5492 5484 5475 5466 5457 5448 5437 5427 5417 5406 5394 5381 5368 5355 5343 5330 5317 5306 5294 5284 5273 5263 5253 5242 5232 5223 5214 5206 5199 5194 5190 5188 5188 5190 5193 5200 5210 5226 5242 5261 5283 5305